timestamp,surface_pressure_avg,surface_temp_avg,battery_voltage,lat,long
2023-07-03 00:09:00+00:00,353.0913,12.3,12.81,47.84626,-54.09684
2023-07-03 00:19:00+00:00,348.288,12.3,12.57,47.84626,-54.09684
2023-07-03 00:29:00+00:00,342.9396,12.3,12.57,47.84626,-54.09684
2023-07-03 00:39:00+00:00,341.1113,12.3,12.57,47.84626,-54.09684
2023-07-03 00:49:00+00:00,334.3546,12.3,12.57,47.84626,-54.09684
2023-07-03 00:59:00+00:00,323.8497,12.3,12.57,47.84626,-54.09684
2023-07-03 01:09:00+00:00,319.27299999999997,12.3,12.57,47.84626,-54.09684
2023-07-03 01:19:00+00:00,314.308,12.3,12.49,47.84626,-54.09684
2023-07-03 01:29:00+00:00,303.898,12.3,12.49,47.84626,-54.09684
2023-07-03 01:39:00+00:00,291.408,12.3,12.49,47.84626,-54.09684
2023-07-03 01:49:00+00:00,286.3131,12.28,12.49,47.84626,-54.09684
2023-07-03 01:59:00+00:00,280.0597,12.27,12.49,47.84626,-54.09684
2023-07-03 02:09:00+00:00,267.4314,12.21,12.49,47.84626,-54.09684
2023-07-03 02:19:00+00:00,257.2031,12.25,12.57,47.84626,-54.09684
2023-07-03 02:29:00+00:00,252.9914,12.29,12.57,47.84626,-54.09684
2023-07-03 02:39:00+00:00,243.433,12.3,12.57,47.84626,-54.09684
2023-07-03 02:49:00+00:00,231.3231,12.37,12.57,47.84626,-54.09684
2023-07-03 02:59:00+00:00,227.7831,12.4,12.57,47.84626,-54.09684
2023-07-03 03:09:00+00:00,227.0464,12.4,12.57,47.84626,-54.09684
2023-07-03 03:19:00+00:00,220.2815,12.4,12.57,47.84626,-54.09684
2023-07-03 03:29:00+00:00,213.0031,12.43,12.57,47.84626,-54.09684
2023-07-03 03:39:00+00:00,211.2948,12.47,12.57,47.84626,-54.09684
2023-07-03 03:49:00+00:00,206.8014,12.49,12.57,47.84626,-54.09684
2023-07-03 03:59:00+00:00,198.9048,12.5,12.57,47.84626,-54.09684
2023-07-03 04:09:00+00:00,195.1014,12.5,12.57,47.84626,-54.09684
2023-07-03 04:19:00+00:00,194.5264,12.52,12.57,47.84626,-54.09684
2023-07-03 04:29:00+00:00,188.1315,12.56,12.57,47.84626,-54.09684
2023-07-03 04:39:00+00:00,181.9232,12.6,12.57,47.84626,-54.09684
2023-07-03 04:49:00+00:00,183.9498,12.69,12.57,47.84626,-54.09684
2023-07-03 04:59:00+00:00,185.5682,12.7,12.57,47.84626,-54.09684
2023-07-03 05:09:00+00:00,182.2715,12.73,12.57,47.84626,-54.09684
2023-07-03 05:19:00+00:00,181.0749,12.79,12.57,47.84626,-54.09684
2023-07-03 05:29:00+00:00,182.6714,12.8,12.57,47.84626,-54.09684
2023-07-03 05:39:00+00:00,183.0215,12.85,12.57,47.84626,-54.09684
2023-07-03 05:49:00+00:00,180.2215,12.9,12.57,47.84626,-54.09684
2023-07-03 05:59:00+00:00,179.7248,12.9,12.57,47.84626,-54.09684
2023-07-03 06:09:00+00:00,182.6531,12.9,12.57,47.84626,-54.09684
2023-07-03 06:19:00+00:00,183.1748,12.9,12.57,47.84626,-54.09684
2023-07-03 06:29:00+00:00,185.2431,12.9,12.57,47.84626,-54.09684
2023-07-03 06:39:00+00:00,190.6731,12.9,12.57,47.84626,-54.09684
2023-07-03 06:49:00+00:00,195.1131,12.9,12.57,47.84626,-54.09684
2023-07-03 06:59:00+00:00,197.5165,12.88,12.57,47.84626,-54.09684
2023-07-03 07:09:00+00:00,199.7998,12.85,12.57,47.84626,-54.09684
2023-07-03 07:19:00+00:00,200.7764,12.83,12.57,47.84626,-54.09684
2023-07-03 07:29:00+00:00,204.0432,12.81,12.57,47.84626,-54.09684
2023-07-03 07:39:00+00:00,211.3131,12.8,12.57,47.84626,-54.09684
2023-07-03 07:49:00+00:00,215.5831,12.8,12.57,47.84626,-54.09684
2023-07-03 07:59:00+00:00,217.4798,12.8,12.57,47.84626,-54.09684
2023-07-03 08:09:00+00:00,220.7997,12.8,12.57,47.84626,-54.09684
2023-07-03 08:19:00+00:00,228.8731,12.8,12.57,47.84626,-54.09684
2023-07-03 08:29:00+00:00,235.6464,12.77,12.57,47.84626,-54.09684
2023-07-03 08:39:00+00:00,239.9531,12.73,12.57,47.84626,-54.09684
2023-07-03 08:49:00+00:00,245.5348,12.73,12.57,47.84626,-54.09684
2023-07-03 08:59:00+00:00,255.9297,12.72,12.57,47.84626,-54.09684
2023-07-03 09:09:00+00:00,264.0014,12.7,12.57,47.84626,-54.09684
2023-07-03 09:19:00+00:00,269.1864,12.74,12.57,47.84626,-54.09684
2023-07-03 09:29:00+00:00,276.7014,12.77,12.57,47.84626,-54.09684
2023-07-03 09:39:00+00:00,288.4247,12.7,12.57,47.84626,-54.09684
2023-07-03 09:49:00+00:00,294.2798,12.7,12.57,47.84626,-54.09684
2023-07-03 09:59:00+00:00,300.7513,12.7,12.57,47.84626,-54.09684
2023-07-03 10:09:00+00:00,308.4547,12.7,12.57,47.84626,-54.09684
2023-07-03 10:19:01+00:00,315.8813,12.7,12.57,47.84626,-54.09684
2023-07-03 10:29:01+00:00,318.233,12.7,12.57,47.84626,-54.09684
2023-07-03 10:39:01+00:00,324.4846,12.7,12.57,47.84626,-54.09684
2023-07-03 10:49:01+00:00,326.9996,12.7,12.57,47.84626,-54.09684
2023-07-03 10:59:01+00:00,329.6896,12.7,12.57,47.84626,-54.09684
2023-07-03 11:09:01+00:00,330.4763,12.7,12.57,47.84626,-54.09684
2023-07-03 11:19:00+00:00,330.2414,12.7,12.65,47.84626,-54.09684
2023-07-03 11:29:00+00:00,330.93300000000005,12.7,12.65,47.84626,-54.09684
2023-07-03 11:39:00+00:00,331.0663,12.7,12.65,47.84626,-54.09684
2023-07-03 11:49:00+00:00,329.2913,12.68,12.65,47.84626,-54.09684
2023-07-03 11:59:00+00:00,326.3214,12.66,12.65,47.84626,-54.09684
2023-07-03 12:09:00+00:00,324.6596,12.64,12.65,47.84626,-54.09684
2023-07-03 12:19:01+00:00,323.7146,12.63,12.73,47.84626,-54.09684
2023-07-03 12:29:01+00:00,319.1913,12.6,12.73,47.84626,-54.09684
2023-07-03 12:39:01+00:00,316.9464,12.6,12.73,47.84626,-54.09684
2023-07-03 12:49:01+00:00,316.5148,12.6,12.73,47.84626,-54.09684
2023-07-03 12:59:01+00:00,313.448,12.6,12.73,47.84626,-54.09684
2023-07-03 13:09:01+00:00,307.5197,12.65,12.73,47.84626,-54.09684
2023-07-03 13:19:00+00:00,305.0214,12.67,13.05,47.84626,-54.09684
2023-07-03 13:29:00+00:00,301.7914,12.69,13.05,47.84626,-54.09684
2023-07-03 13:39:00+00:00,291.8247,12.69,13.05,47.84626,-54.09684
2023-07-03 13:49:00+00:00,283.6297,12.69,13.05,47.84626,-54.09684
2023-07-03 13:59:00+00:00,278.6281,12.69,13.05,47.84626,-54.09684
2023-07-03 14:09:00+00:00,269.8381,12.67,13.05,47.84626,-54.09684
2023-07-03 14:19:00+00:00,255.3864,12.65,13.29,47.84626,-54.09684
2023-07-03 14:29:00+00:00,247.3397,12.6,13.29,47.84626,-54.09684
2023-07-03 14:39:00+00:00,242.4064,12.6,13.29,47.84626,-54.09684
2023-07-03 14:49:00+00:00,231.9198,12.59,13.29,47.84626,-54.09684
2023-07-03 14:59:00+00:00,220.3247,12.52,13.29,47.84626,-54.09684
2023-07-03 15:09:00+00:00,214.3798,12.5,13.29,47.84626,-54.09684
2023-07-03 15:19:00+00:00,209.9414,12.56,13.44,47.84626,-54.09684
2023-07-03 15:29:00+00:00,202.0214,12.6,13.44,47.84626,-54.09684
2023-07-03 15:39:00+00:00,194.8582,12.64,13.44,47.84626,-54.09684
2023-07-03 15:49:00+00:00,190.4865,12.69,13.44,47.84626,-54.09684
2023-07-03 15:59:00+00:00,185.1765,12.7,13.44,47.84626,-54.09684
2023-07-03 16:09:00+00:00,179.4348,12.68,13.44,47.84626,-54.09684
2023-07-03 16:19:00+00:00,174.2749,12.64,13.6,47.84626,-54.09684
2023-07-03 16:29:00+00:00,172.9282,12.6,13.6,47.84626,-54.09684
2023-07-03 16:39:00+00:00,174.7548,12.6,13.6,47.84626,-54.09684
2023-07-03 16:49:00+00:00,172.8332,12.6,13.6,47.84626,-54.09684
2023-07-03 16:59:00+00:00,169.5915,12.6,13.6,47.84626,-54.09684
2023-07-03 17:09:00+00:00,172.0182,12.6,13.6,47.84626,-54.09684
2023-07-03 17:19:01+00:00,172.6648,12.6,13.6,47.84626,-54.09684
2023-07-03 17:29:01+00:00,168.3498,12.61,13.6,47.84626,-54.09684
2023-07-03 17:39:01+00:00,170.3615,12.67,13.6,47.84626,-54.09684
2023-07-03 17:49:01+00:00,175.7948,12.67,13.6,47.84626,-54.09684
2023-07-03 17:59:01+00:00,175.5515,12.69,13.6,47.84626,-54.09684
2023-07-03 18:09:01+00:00,178.1715,12.7,13.6,47.84626,-54.09684
2023-07-03 18:19:00+00:00,185.1881,12.7,13.68,47.84626,-54.09684
2023-07-03 18:29:00+00:00,187.6431,12.7,13.68,47.84626,-54.09684
2023-07-03 18:39:00+00:00,188.9115,12.75,13.68,47.84626,-54.09684
2023-07-03 18:49:00+00:00,195.7814,12.79,13.68,47.84626,-54.09684
2023-07-03 18:59:00+00:00,203.0565,12.8,13.68,47.84626,-54.09684
2023-07-03 19:09:00+00:00,205.0964,12.8,13.68,47.84626,-54.09684
2023-07-03 19:19:00+00:00,208.5631,12.84,13.6,47.84626,-54.09684
2023-07-03 19:29:00+00:00,214.7298,12.88,13.6,47.84626,-54.09684
2023-07-03 19:39:00+00:00,219.4397,12.87,13.6,47.84626,-54.09684
2023-07-03 19:49:00+00:00,224.1848,12.8,13.6,47.84626,-54.09684
2023-07-03 19:59:00+00:00,231.9714,12.8,13.6,47.84626,-54.09684
2023-07-03 20:09:00+00:00,238.2764,12.7,13.6,47.84626,-54.09684
2023-07-03 20:19:00+00:00,243.6031,12.7,13.44,47.84626,-54.09684
2023-07-03 20:29:00+00:00,251.4014,12.6,13.44,47.84626,-54.09684
2023-07-03 20:39:00+00:00,262.5647,12.6,13.44,47.84626,-54.09684
2023-07-03 20:49:00+00:00,269.3747,12.6,13.44,47.84626,-54.09684
2023-07-03 20:59:00+00:00,275.2498,12.6,13.44,47.84626,-54.09684
2023-07-03 21:09:00+00:00,284.4964,12.69,13.44,47.84626,-54.09684
2023-07-03 21:19:00+00:00,295.9014,12.7,13.29,47.84626,-54.09684
2023-07-03 21:29:00+00:00,304.1063,12.7,13.29,47.84626,-54.09684
2023-07-03 21:39:00+00:00,312.4064,12.75,13.29,47.84626,-54.09684
2023-07-03 21:49:00+00:00,320.968,12.8,13.29,47.84626,-54.09684
2023-07-03 21:59:00+00:00,329.6729,12.8,13.29,47.84626,-54.09684
2023-07-03 22:09:00+00:00,337.3214,12.8,13.29,47.84626,-54.09684
2023-07-03 22:19:00+00:00,344.57800000000015,12.82,12.97,47.84626,-54.09684
2023-07-03 22:29:00+00:00,353.7745,12.85,12.97,47.84626,-54.09684
2023-07-03 22:39:00+00:00,359.2729,12.88,12.97,47.84626,-54.09684
2023-07-03 22:49:00+00:00,363.7795,12.9,12.97,47.84626,-54.09684
2023-07-03 22:59:00+00:00,367.43800000000016,12.9,12.97,47.84626,-54.09684
2023-07-03 23:09:00+00:00,371.6812,12.9,12.97,47.84626,-54.09684
2023-07-03 23:19:00+00:00,376.3797,12.9,12.81,47.84626,-54.09684
2023-07-03 23:29:00+00:00,377.3478,12.86,12.81,47.84626,-54.09684
2023-07-03 23:39:00+00:00,378.3913,12.85,12.81,47.84626,-54.09684
2023-07-03 23:49:00+00:00,378.2745,12.89,12.81,47.84626,-54.09684
2023-07-03 23:59:00+00:00,378.0996,12.9,12.81,47.84626,-54.09684
